GW5805 Weather Reports


time (UTC)temp
C
wind
direction
speed
KPH
gust
KPH
rain 1hr
cm
rain 24hr
cm
rain mn
cm
humidity
%
barometer
mb
20260502163907 19 142 0.0 0.0 0.00 0.00 0.00 39 1021.7
20260502163403 19 142 0.0 0.0 0.00 0.00 0.00 39 1021.7
20260502162901 19 137 0.0 1.6 0.00 0.00 0.00 41 1021.7
20260502162357 19 137 0.0 1.6 0.00 0.00 0.00 41 1021.7
20260502161855 19 134 0.0 0.0 0.00 0.00 0.00 39 1021.7
20260502161350 19 139 0.0 0.0 0.00 0.00 0.00 40 1021.9
20260502160849 19 148 0.0 0.0 0.00 0.00 0.00 39 1021.8
20260502160347 20 149 1.6 1.6 0.00 0.00 0.00 37 1021.8
20260502152322 16 136 0.0 0.0 0.00 0.00 0.00 46 1021.8
20260502151820 15 133 0.0 0.0 0.00 0.00 0.00 45 1021.8
20260502151316 13 124 1.6 1.6 0.00 0.00 0.00 50 1022.0
20260502150814 13 124 1.6 1.6 0.00 0.00 0.00 50 1022.0
20260502150310 13 124 1.6 1.6 0.00 0.00 0.00 50 1022.0
20260502130439 4 132 0.0 0.0 0.00 0.00 0.00 66 1021.4
20260502123422 2 130 0.0 1.6 0.00 0.00 0.00 74 1021.3
20260502122919 2 128 0.0 0.0 0.00 0.00 0.00 73 1021.2
20260502122415 2 128 0.0 0.0 0.00 0.00 0.00 73 1021.2
20260502121914 3 129 0.0 0.0 0.00 0.00 0.00 74 1021.1
20260502121410 3 129 0.0 0.0 0.00 0.00 0.00 74 1021.1
20260502120908 3 137 0.0 0.0 0.00 0.00 0.00 73 1021.0
20260502120404 3 137 0.0 0.0 0.00 0.00 0.00 73 1021.0
20260502115901 3 137 0.0 0.0 0.00 0.00 0.00 72 1021.1
20260502115358 3 135 0.0 0.0 0.00 0.00 0.00 71 1021.0
20260502114854 3 139 0.0 0.0 0.00 0.00 0.00 71 1021.1
20260502114352 3 139 0.0 0.0 0.00 0.00 0.00 71 1021.1
20260502113848 3 133 0.0 0.0 0.00 0.00 0.00 71 1020.9
20260502112335 4 134 0.0 0.0 0.00 0.00 0.00 68 1021.2
20260502111833 4 134 0.0 0.0 0.00 0.00 0.00 68 1021.2
20260502111331 5 130 0.0 0.0 0.00 0.00 0.00 67 1021.3
20260502110828 5 130 0.0 0.0 0.00 0.00 0.00 67 1021.1
20260502110326 5 131 0.0 0.0 0.00 0.00 0.00 66 1021.4
20260502105823 5 130 0.0 0.0 0.00 0.00 0.00 67 1021.0
20260502105320 5 130 0.0 0.0 0.00 0.00 0.00 67 1021.0
20260502104817 5 128 0.0 0.0 0.00 0.00 0.00 69 1021.3
20260502104314 5 133 0.0 0.0 0.00 0.00 0.00 66 1021.2
20260502103812 5 133 0.0 0.0 0.00 0.00 0.00 66 1021.0
20260502103309 5 128 0.0 0.0 0.00 0.00 0.00 67 1021.3
20260502102807 5 129 0.0 0.0 0.00 0.00 0.00 66 1021.2
20260502102305 5 129 0.0 0.0 0.00 0.00 0.00 66 1021.1
20260502101800 5 133 0.0 0.0 0.00 0.00 0.00 66 1021.2
20260502101258 5 133 0.0 0.0 0.00 0.00 0.00 66 1021.2
20260502100756 5 138 0.0 0.0 0.00 0.00 0.00 65 1021.1
20260502100255 5 140 0.0 0.0 0.00 0.00 0.00 66 1021.0
20260502091229 7 140 0.0 0.0 0.00 0.00 0.00 54 1021.1
20260502090726 7 133 0.0 0.0 0.00 0.00 0.00 54 1021.1
20260502090223 7 188 1.6 1.6 0.00 0.00 0.00 55 1020.8
20260502071124 7 137 0.0 0.0 0.00 0.00 0.00 58 1020.9
20260502070622 7 143 0.0 1.6 0.00 0.00 0.00 59 1020.9
20260502070120 7 130 0.0 1.6 0.00 0.00 0.00 59 1020.9
20260502065618 7 131 0.0 0.0 0.00 0.00 0.00 60 1020.9
20260502065115 7 131 0.0 0.0 0.00 0.00 0.00 59 1021.0
20260502064614 7 131 0.0 0.0 0.00 0.00 0.00 58 1021.0
20260502064111 8 131 0.0 0.0 0.00 0.00 0.00 57 1021.0
20260502063608 8 130 0.0 0.0 0.00 0.00 0.00 56 1021.0
20260502063106 8 133 0.0 0.0 0.00 0.00 0.00 55 1021.0
20260502062603 8 128 0.0 1.6 0.00 0.00 0.00 56 1021.0
20260502062101 8 128 0.0 0.0 0.00 0.00 0.00 54 1020.8
20260502061558 8 117 0.0 0.0 0.00 0.00 0.00 56 1020.8
20260502061055 8 128 0.0 0.0 0.00 0.00 0.00 55 1020.8
20260502060550 8 129 0.0 0.0 0.00 0.00 0.00 54 1020.6
20260502060048 8 138 0.0 0.0 0.00 0.00 0.00 55 1021.0
20260502055545 8 128 0.0 0.0 0.00 0.00 0.00 55 1020.6
20260502055044 8 138 0.0 0.0 0.00 0.00 0.00 56 1020.5
20260502054542 8 140 0.0 1.6 0.00 0.00 0.00 56 1020.8
20260502054038 8 136 0.0 0.0 0.00 0.00 0.00 54 1020.5
20260502053536 9 129 0.0 0.0 0.00 0.00 0.00 54 1020.8
20260502053033 8 137 0.0 0.0 0.00 0.00 0.00 54 1020.6
20260502052532 8 122 1.6 1.6 0.00 0.00 0.00 55 1020.8
20260502052029 8 133 0.0 0.0 0.00 0.00 0.00 55 1020.5
20260502051527 9 130 0.0 0.0 0.00 0.00 0.00 54 1020.5
20260502051025 9 127 0.0 0.0 0.00 0.00 0.00 53 1020.5
20260502050520 10 126 0.0 0.0 0.00 0.00 0.00 53 1020.6
20260502050018 10 137 0.0 0.0 0.00 0.00 0.00 51 1020.5
20260502045514 10 130 0.0 0.0 0.00 0.00 0.00 51 1020.4
20260502045012 10 136 0.0 0.0 0.00 0.00 0.00 50 1020.4
20260502044508 10 131 0.0 0.0 0.00 0.00 0.00 49 1020.5
20260502044004 11 130 0.0 0.0 0.00 0.00 0.00 49 1020.6
20260502043502 11 131 0.0 0.0 0.00 0.00 0.00 48 1020.3
20260502043002 11 137 0.0 0.0 0.00 0.00 0.00 48 1020.5
20260502042459 11 138 0.0 1.6 0.00 0.00 0.00 49 1020.4
20260502041956 11 136 0.0 0.0 0.00 0.00 0.00 49 1020.4
20260502041454 11 131 0.0 0.0 0.00 0.00 0.00 48 1020.4
20260502040950 11 132 0.0 0.0 0.00 0.00 0.00 47 1020.3
20260502040447 12 131 0.0 0.0 0.00 0.00 0.00 47 1020.3
20260502035943 12 128 0.0 0.0 0.00 0.00 0.00 47 1020.3
20260502035440 11 146 1.6 1.6 0.00 0.00 0.00 47 1020.2
20260502034938 12 131 0.0 0.0 0.00 0.00 0.00 47 1020.2
20260502034436 12 133 0.0 0.0 0.00 0.00 0.00 46 1020.1
20260502033934 12 137 0.0 0.0 0.00 0.00 0.00 45 1019.8
20260502033431 12 135 0.0 0.0 0.00 0.00 0.00 44 1019.8
20260502032928 12 136 0.0 0.0 0.00 0.00 0.00 45 1020.1
20260502032424 12 139 0.0 1.6 0.00 0.00 0.00 47 1019.8
20260502031922 12 133 0.0 0.0 0.00 0.00 0.00 46 1019.7
20260502031420 11 138 0.0 1.6 0.00 0.00 0.00 46 1019.7
20260502030918 12 134 0.0 0.0 0.00 0.00 0.00 46 1019.7
20260502030416 12 133 0.0 0.0 0.00 0.00 0.00 46 1019.5
20260502025914 12 133 0.0 0.0 0.00 0.00 0.00 45 1019.4
20260502025410 12 132 0.0 0.0 0.00 0.00 0.00 44 1019.5
20260502024908 13 131 0.0 0.0 0.00 0.00 0.00 43 1019.3
20260502024406 13 131 0.0 0.0 0.00 0.00 0.00 42 1019.4
20260502023903 14 130 0.0 0.0 0.00 0.00 0.00 40 1019.3
20260502023401 15 130 0.0 0.0 0.00 0.00 0.00 39 1019.3
20260502022859 15 130 0.0 0.0 0.00 0.00 0.00 38 1019.2
20260502022355 15 131 0.0 0.0 0.00 0.00 0.00 36 1019.0
20260502021851 16 135 0.0 0.0 0.00 0.00 0.00 36 1018.9
20260502021349 16 131 0.0 1.6 0.00 0.00 0.00 34 1019.2
20260502020846 16 287 1.6 4.8 0.00 0.00 0.00 34 1018.8
20260502020344 17 299 3.2 4.8 0.00 0.00 0.00 32 1018.9
20260502015841 17 135 1.6 1.6 0.00 0.00 0.00 32 1018.9
20260502015338 17 129 3.2 3.2 0.00 0.00 0.00 31 1018.9
20260502014835 17 9 8.0 11.3 0.00 0.00 0.00 31 1018.9
20260502014332 17 118 1.6 3.2 0.00 0.00 0.00 31 1018.9
20260502013828 17 345 6.4 6.4 0.00 0.00 0.00 30 1018.8
20260502013324 17 87 6.4 9.7 0.00 0.00 0.00 30 1018.9
20260502012820 17 132 1.6 1.6 0.00 0.00 0.00 30 1018.8
20260502012319 18 126 3.2 3.2 0.00 0.00 0.00 29 1018.7
20260502011815 18 146 4.8 4.8 0.00 0.00 0.00 28 1018.9
20260502011311 18 230 8.0 11.3 0.00 0.00 0.00 28 1018.9
20260502010809 19 90 1.6 3.2 0.00 0.00 0.00 28 1018.8
20260502010305 19 165 1.6 4.8 0.00 0.00 0.00 28 1018.9
20260502005802 19 92 3.2 4.8 0.00 0.00 0.00 27 1018.9
20260502005300 19 357 3.2 4.8 0.00 0.00 0.00 27 1018.9
20260502004756 19 150 4.8 6.4 0.00 0.00 0.00 27 1018.8
20260502004253 20 114 6.4 9.7 0.00 0.00 0.00 28 1018.9
20260502003751 20 133 1.6 3.2 0.00 0.00 0.00 28 1018.9
20260502003248 20 144 6.4 11.3 0.00 0.00 0.00 27 1018.8
20260502002743 20 149 3.2 4.8 0.00 0.00 0.00 28 1018.8
20260502002241 19 179 6.4 11.3 0.00 0.00 0.00 27 1018.9
20260502001738 20 149 4.8 4.8 0.00 0.00 0.00 29 1018.9
20260502001237 20 67 8.0 9.7 0.00 0.00 0.00 27 1018.7
20260502000734 20 339 8.0 9.7 0.00 0.00 0.00 27 1018.9
20260502000233 20 311 4.8 6.4 0.00 0.00 0.00 27 1019.0
20260501235732 20 8 4.8 6.4 0.00 0.00 0.00 28 1019.0
20260501235228 20 98 8.0 12.9 0.00 0.00 0.00 28 1019.0
20260501234724 20 321 3.2 4.8 0.00 0.00 0.00 27 1018.9
20260501234221 20 65 3.2 3.2 0.00 0.00 0.00 28 1018.9
20260501233719 20 286 9.7 12.9 0.00 0.00 0.00 27 1018.9
20260501233217 20 110 8.0 11.3 0.00 0.00 0.00 28 1019.0
20260501232712 20 283 9.7 11.3 0.00 0.00 0.00 28 1019.2
20260501232210 20 325 11.3 12.9 0.00 0.00 0.00 28 1019.3
20260501231707 20 33 6.4 6.4 0.00 0.00 0.00 28 1019.2
20260501231205 20 279 4.8 9.7 0.00 0.00 0.00 30 1019.0
20260501230703 20 188 6.4 9.7 0.00 0.00 0.00 30 1019.3
20260501230201 20 183 6.4 6.4 0.00 0.00 0.00 29 1019.4
20260501225659 20 90 6.4 12.9 0.00 0.00 0.00 31 1019.4
20260501225155 20 125 6.4 9.7 0.00 0.00 0.00 30 1019.2
20260501224652 20 114 4.8 6.4 0.00 0.00 0.00 27 1019.4
20260501224149 20 97 6.4 12.9 0.00 0.00 0.00 30 1019.6
20260501223646 19 69 3.2 4.8 0.00 0.00 0.00 31 1019.5
20260501223142 20 276 3.2 6.4 0.00 0.00 0.00 31 1019.3
20260501222638 20 353 6.4 9.7 0.00 0.00 0.00 28 1019.8
20260501222135 20 13 11.3 14.5 0.00 0.00 0.00 28 1020.0
20260501221632 20 108 4.8 4.8 0.00 0.00 0.00 30 1019.7
20260501221129 19 338 9.7 12.9 0.00 0.00 0.00 30 1020.0
20260501220627 20 47 11.3 14.5 0.00 0.00 0.00 28 1020.0
20260501220124 19 86 6.4 9.7 0.00 0.00 0.00 30 1020.1
20260501215621 19 319 9.7 11.3 0.00 0.00 0.00 30 1020.2
20260501215116 19 129 1.6 3.2 0.00 0.00 0.00 32 1020.0
20260501214611 19 313 3.2 4.8 0.00 0.00 0.00 32 1020.2
20260501214107 19 230 6.4 11.3 0.00 0.00 0.00 32 1020.2
20260501213604 19 37 9.7 11.3 0.00 0.00 0.00 30 1020.2
20260501213100 19 146 6.4 9.7 0.00 0.00 0.00 32 1020.3
20260501212556 19 6 8.0 11.3 0.00 0.00 0.00 29 1020.4
20260501212053 18 45 8.0 12.9 0.00 0.00 0.00 31 1020.5
20260501211550 18 141 1.6 3.2 0.00 0.00 0.00 37 1020.5
20260501211049 18 115 4.8 6.4 0.00 0.00 0.00 29 1020.5
20260501210544 18 79 4.8 6.4 0.00 0.00 0.00 34 1020.4
20260501210041 18 168 4.8 11.3 0.00 0.00 0.00 31 1020.5
20260501205538 18 267 3.2 3.2 0.00 0.00 0.00 33 1020.6
20260501205036 18 322 8.0 16.1 0.00 0.00 0.00 31 1020.5
20260501204531 18 199 9.7 11.3 0.00 0.00 0.00 29 1020.6
20260501204027 18 141 3.2 4.8 0.00 0.00 0.00 29 1020.5
20260501203524 18 127 4.8 9.7 0.00 0.00 0.00 31 1020.5
20260501203022 18 100 6.4 9.7 0.00 0.00 0.00 30 1020.5
20260501202519 18 188 3.2 6.4 0.00 0.00 0.00 33 1020.6
20260501202015 18 42 6.4 9.7 0.00 0.00 0.00 30 1020.6
20260501201513 18 267 3.2 6.4 0.00 0.00 0.00 30 1020.6
20260501201009 18 248 11.3 14.5 0.00 0.00 0.00 30 1020.5
20260501200506 18 96 4.8 4.8 0.00 0.00 0.00 32 1020.5
20260501200004 18 64 6.4 11.3 0.00 0.00 0.00 30 1020.8
20260501195500 18 53 3.2 6.4 0.00 0.00 0.00 32 1020.8
20260501194956 18 254 6.4 9.7 0.00 0.00 0.00 30 1020.6
20260501194452 18 245 3.2 4.8 0.00 0.00 0.00 31 1020.8
20260501193948 18 226 1.6 4.8 0.00 0.00 0.00 33 1021.0
20260501193446 18 140 1.6 3.2 0.00 0.00 0.00 31 1020.8
20260501192943 17 134 3.2 4.8 0.00 0.00 0.00 31 1020.9
20260501192441 18 323 8.0 12.9 0.00 0.00 0.00 29 1020.9
20260501191938 18 112 3.2 4.8 0.00 0.00 0.00 33 1021.0
20260501191435 18 79 8.0 9.7 0.00 0.00 0.00 31 1021.0
20260501190932 18 87 3.2 4.8 0.00 0.00 0.00 30 1020.9
20260501190428 18 170 6.4 9.7 0.00 0.00 0.00 30 1021.1
20260501185923 17 55 4.8 6.4 0.00 0.00 0.00 30 1021.2
20260501185419 18 115 12.9 16.1 0.00 0.00 0.00 30 1021.1
20260501184915 18 147 8.0 12.9 0.00 0.00 0.00 30 1021.1
20260501184411 17 156 3.2 4.8 0.00 0.00 0.00 31 1021.2
20260501183906 18 29 6.4 6.4 0.00 0.00 0.00 31 1021.3
20260501183404 19 282 3.2 6.4 0.00 0.00 0.00 28 1021.4
20260501182900 20 133 3.2 3.2 0.00 0.00 0.00 23 1021.4
20260501182357 20 150 1.6 3.2 0.00 0.00 0.00 25 1021.5
20260501181854 20 144 1.6 1.6 0.00 0.00 0.00 33 1021.7
20260501181351 20 119 3.2 4.8 0.00 0.00 0.00 26 1021.5
20260501180849 20 124 0.0 1.6 0.00 0.00 0.00 26 1021.8
20260501180344 19 119 0.0 1.6 0.00 0.00 0.00 33 1021.7
20260501175842 18 135 1.6 1.6 0.00 0.00 0.00 34 1021.9
20260501175338 18 129 1.6 1.6 0.00 0.00 0.00 29 1021.7
20260501174835 17 119 1.6 1.6 0.00 0.00 0.00 31 1021.8
20260501174333 18 114 0.0 0.0 0.00 0.00 0.00 29 1021.7
20260501173831 18 52 1.6 3.2 0.00 0.00 0.00 28 1021.7
20260501173328 18 117 1.6 3.2 0.00 0.00 0.00 30 1021.9
20260501172823 18 123 1.6 4.8 0.00 0.00 0.00 29 1021.7
20260501172319 18 344 3.2 4.8 0.00 0.00 0.00 31 1021.8